RYR5056 LEMD-GMMH

Flight info

Callsign RYR5056
Flight time N/A
Altitude 31000
Route CCS DCT ELVAR DCT TAKAV DCT ROLRO DCT SOLNA L660 DKH
Aircraft B738/M-SDE2E3FGHIRWXY/LB1

Departure

Time 2026-05-04 10:56
Airport Adolfo Suárez Madrid–Barajas Airport (LEMD)

Arrival

Time N/A
Airport Dakhla Airport (GMMH)
Time Latitude Longitude Altitude Speed Heading
2026-05-04 10:23 40.46329 -3.56869 1970 ft 0 kts 300°
2026-05-04 10:44 40.46305 -3.56816 1975 ft 2 kts 317°
2026-05-04 10:45 40.46291 -3.56807 1976 ft 1 kts 21°
2026-05-04 10:45 40.46285 -3.56810 1976 ft 0 kts 33°
2026-05-04 10:47 40.46286 -3.56810 1976 ft 0 kts 33°
2026-05-04 10:47 40.46300 -3.56785 1973 ft 7 kts 69°
2026-05-04 10:47 40.46297 -3.56701 1972 ft 11 kts 94°
2026-05-04 10:47 40.46324 -3.56599 1971 ft 14 kts 25°
2026-05-04 10:49 40.47243 -3.56724 1984 ft 20 kts 322°
2026-05-04 10:49 40.47364 -3.56847 1987 ft 23 kts 322°
2026-05-04 10:50 40.47499 -3.56985 1991 ft 26 kts 322°
2026-05-04 10:51 40.48462 -3.57942 1993 ft 24 kts 327°
2026-05-04 10:52 40.48605 -3.58045 2002 ft 23 kts 348°
2026-05-04 10:52 40.48767 -3.58049 2002 ft 24 kts 360°
2026-05-04 10:52 40.48938 -3.58052 2002 ft 25 kts 359°
2026-05-04 10:54 40.49500 -3.57452 1984 ft 18 kts 359°
2026-05-04 10:54 40.49799 -3.57457 1985 ft 80 kts 360°
2026-05-04 10:56 40.59246 -3.57558 5034 ft 247 kts
2026-05-04 10:56 40.60950 -3.57045 5563 ft 256 kts 20°
2026-05-04 10:56 40.62581 -3.56093 6296 ft 254 kts 24°
2026-05-04 10:57 40.64268 -3.55327 6685 ft 264 kts
2026-05-04 10:57 40.66048 -3.55825 7200 ft 261 kts 328°
2026-05-04 10:57 40.67388 -3.57362 7721 ft 260 kts 300°
2026-05-04 10:57 40.68036 -3.59618 8104 ft 269 kts 273°
2026-05-04 10:58 40.68049 -3.62050 8841 ft 270 kts 263°
2026-05-04 10:58 40.67914 -3.64527 9672 ft 271 kts 262°
2026-05-04 10:58 40.67754 -3.67029 10378 ft 277 kts 262°
2026-05-04 10:58 40.67579 -3.69673 10575 ft 302 kts 262°
2026-05-04 10:59 40.67397 -3.72504 10756 ft 324 kts 263°
2026-05-04 10:59 40.67209 -3.75565 11110 ft 339 kts 263°
2026-05-04 10:59 40.67023 -3.78708 11754 ft 344 kts 263°
2026-05-04 10:59 40.66843 -3.81828 12499 ft 346 kts 263°
2026-05-04 11:00 40.66661 -3.85013 13246 ft 349 kts 263°
2026-05-04 11:01 40.65336 -4.07850 17842 ft 365 kts 263°
2026-05-04 11:02 40.65137 -4.11217 18470 ft 367 kts 263°
2026-05-04 11:02 40.64937 -4.14587 19031 ft 368 kts 263°
2026-05-04 11:05 40.58739 -4.61697 25748 ft 385 kts 233°
2026-05-04 11:06 40.57126 -4.64504 26292 ft 382 kts 233°
2026-05-04 11:06 40.55532 -4.67257 26845 ft 379 kts 233°
2026-05-04 11:06 40.53937 -4.70024 27321 ft 379 kts 233°
2026-05-04 11:06 40.52348 -4.72795 27768 ft 379 kts 233°
2026-05-04 11:08 40.41196 -4.92321 29765 ft 399 kts 234°
2026-05-04 11:10 40.29420 -5.12805 31884 ft 400 kts 233°
2026-05-04 11:12 40.17722 -5.33034 33949 ft 396 kts 233°
2026-05-04 11:12 40.16052 -5.35912 34194 ft 396 kts 233°
2026-05-04 11:12 40.14398 -5.38758 34363 ft 397 kts 233°
2026-05-04 11:12 40.12718 -5.41647 34531 ft 398 kts 233°
2026-05-04 11:13 40.11038 -5.44534 34744 ft 398 kts 233°
2026-05-04 11:13 40.09373 -5.47393 34955 ft 397 kts 233°
2026-05-04 11:13 40.07686 -5.50285 35121 ft 399 kts 234°
2026-05-04 11:13 40.06008 -5.53160 35297 ft 399 kts 233°
2026-05-04 11:14 40.04317 -5.56054 35506 ft 399 kts 233°
2026-05-04 11:14 40.02652 -5.58902 35702 ft 399 kts 234°
2026-05-04 11:14 40.00962 -5.61791 35860 ft 400 kts 234°
2026-05-04 11:16 39.89684 -5.80992 37005 ft 401 kts 234°
2026-05-04 11:16 39.86262 -5.86797 37017 ft 404 kts 234°
2026-05-04 11:17 39.82849 -5.92574 37018 ft 400 kts 234°
2026-05-04 11:19 39.69390 -6.15255 37032 ft 395 kts 234°
2026-05-04 11:19 39.66019 -6.20912 37031 ft 396 kts 234°
2026-05-04 11:20 39.62628 -6.26592 37031 ft 397 kts 234°
2026-05-04 11:20 39.59248 -6.32244 37034 ft 399 kts 234°
2026-05-04 11:22 39.47461 -6.56562 37045 ft 402 kts 244°
2026-05-04 11:23 39.44976 -6.63047 37037 ft 402 kts 244°
2026-05-04 11:25 39.36229 -6.85641 37046 ft 400 kts 244°
2026-05-04 11:25 39.33740 -6.92040 37049 ft 399 kts 244°
2026-05-04 11:27 39.22122 -7.20413 37061 ft 399 kts 230°
2026-05-04 11:28 39.17929 -7.25134 37046 ft 406 kts 214°
2026-05-04 11:28 39.12939 -7.28636 37064 ft 408 kts 212°
2026-05-04 11:29 39.07934 -7.32027 37058 ft 409 kts 212°
2026-05-04 11:29 39.02911 -7.35456 37067 ft 409 kts 213°
2026-05-04 11:33 38.67511 -7.59753 37127 ft 413 kts 213°
2026-05-04 11:33 38.62440 -7.63215 37089 ft 415 kts 213°
2026-05-04 11:34 38.57355 -7.66679 37075 ft 415 kts 213°
2026-05-04 11:34 38.52245 -7.70154 37080 ft 416 kts 213°
2026-05-04 11:35 38.47115 -7.73636 37084 ft 416 kts 213°
2026-05-04 11:35 38.42002 -7.77103 37076 ft 417 kts 213°
2026-05-04 11:36 38.36894 -7.80560 37083 ft 416 kts 213°
2026-05-04 11:36 38.31796 -7.84006 37093 ft 417 kts 213°
2026-05-04 11:37 38.26677 -7.87459 37094 ft 417 kts 213°
2026-05-04 11:37 38.21524 -7.90930 37094 ft 417 kts 213°
2026-05-04 11:38 38.16430 -7.94356 37101 ft 416 kts 213°
2026-05-04 11:38 38.11293 -7.97805 37103 ft 416 kts 213°
2026-05-04 11:39 38.06185 -8.01228 37095 ft 416 kts 213°
2026-05-04 11:41 37.88300 -8.13175 37096 ft 414 kts 213°
2026-05-04 11:41 37.83208 -8.16565 37094 ft 414 kts 213°
2026-05-04 11:42 37.78130 -8.19940 37111 ft 414 kts 213°
2026-05-04 11:42 37.73015 -8.23334 37107 ft 413 kts 213°
2026-05-04 11:43 37.67938 -8.26697 37092 ft 413 kts 213°
2026-05-04 11:43 37.62829 -8.30077 37106 ft 413 kts 213°
2026-05-04 11:44 37.57756 -8.33427 37101 ft 413 kts 213°
2026-05-04 11:44 37.52664 -8.36785 37104 ft 413 kts 213°
2026-05-04 11:45 37.47574 -8.40136 37105 ft 413 kts 213°
2026-05-04 11:45 37.42470 -8.43491 37107 ft 412 kts 213°
2026-05-04 11:46 37.37405 -8.46815 37109 ft 412 kts 213°
2026-05-04 11:46 37.32323 -8.50146 37112 ft 412 kts 213°
2026-05-04 11:47 37.27240 -8.53472 37108 ft 411 kts 213°
2026-05-04 11:47 37.22147 -8.56799 37120 ft 411 kts 213°
2026-05-04 11:48 37.17093 -8.60096 37116 ft 411 kts 213°
2026-05-04 11:48 37.12006 -8.63409 37115 ft 411 kts 214°
2026-05-04 11:49 37.06947 -8.66699 37115 ft 410 kts 214°
2026-05-04 11:49 37.01901 -8.69976 37120 ft 409 kts 214°
2026-05-04 11:50 36.96854 -8.73248 37120 ft 409 kts 214°
2026-05-04 11:50 36.91777 -8.76535 37126 ft 408 kts 214°
2026-05-04 11:51 36.86752 -8.79784 37128 ft 408 kts 214°
2026-05-04 11:51 36.81702 -8.83043 37130 ft 407 kts 214°
2026-05-04 11:52 36.76683 -8.86278 37128 ft 407 kts 214°
2026-05-04 11:52 36.71668 -8.89506 37128 ft 407 kts 214°
2026-05-04 11:53 36.66621 -8.92749 37127 ft 406 kts 214°
2026-05-04 11:53 36.61611 -8.95964 37128 ft 406 kts 214°